Showing default

BLUE GHOST, 62716

Orbit data source: Space-Track

BLUE GHOST, 62716 is a payload satellite owned by Firefly (US) in HEO that was launched on Wed, 15 Jan 2025 UTC via an FALCON 9 launch vehicle from the Air Force Eastern Test Range (AFETR). Payloads include a variety of satellites, spacecraft, and rockets equipped with specific instruments for various scientific and technological missions. These include communications satellites like Starlink; space stations such as the ISS; scientific satellites like the Hubble; Earth observation satellites from companies like Planet Labs, Umbra, and HawkEye 360; GPS; miniature CubeSats for education and research; and military/defense satellites.

Loading next visibility...
BLUE GHOST details
Identifier
62716, 2025-010A
Orbit
HEO
Last TLE update3 weeks ago
Origin
Flag of USFirefly (US)
ManufacturerFirefly
MissionOperational spacecraft
Bus & MotorBLUE GHOST, Unknown motor
Mass~1,500 kg wet, 469 kg dry
Launch date (UTC)
2025-01-15 (3 weeks ago)
Launch vehicle
FALCON 9
Launch site
Air Force Eastern Test Range (AFETR)
Object type
Payload
Rocket body
Debris
Shape & HBRUnknown
Radar Cross SectionRCS unknown

Expand to show TLE details & history

TLE from 3 weeks ago
0 BLUE GHOST
1 62716U 25010A   25015.29938097 -.00032000  26295-4  00000-0 0  9994
2 62716  35.0400 359.0739 9608400 346.4200   0.0135  0.12641706    04
Epoch: 2025-01-15T07:11Z
Definitive object data (Epoch: 2025-01-15T07:11:06.515Z)
Latitude27.93165°
Longitude-94.20469°
Altitude41,607.797 km
Speed3.773 km/s
True Right ascension08h 34m 15s
True Declination27° 54' 38"
Sunlit
Object was in daylight at TLE epoch
Visualization TLE readout
Latitude5.50719°
Longitude-52.12248°
Altitude306,932.425 km
Speed0.409 km/s
Apparent Right ascension11h 26m 08s
Apparent Declination4° 46' 41"
Sunlit
Object is in daylight
Visualization observer readout
Local Sidereal Time06:06:05
Azimuth92.744° ESE
Elevation10.721°
Doppler factor1
Orbital elements
Apogee altitude322,465.897 km
Perigee altitude189.218 km
Semi-major axis167,705.694 km
Eccentricity0.96084
Inclination35.04°
RAAN359.0739°
Arg. of periapsis346.42°
True anomaly2.42466°
Mean anomaly0.0135°
Eccentric anomaly0.3427°
Mean motion0.0316 °/min
BSTARUnknown
Orbital period11391.5 mins
Loading maneuver chart data...
Loading historical data...
Loading historical data...
Loading historical data...
Loading historical data...
Loading historical data...
Loading historical data...
Loading historical data...
Other satellites on launch #10 in the year 2025 (2025-01-15 UTC)

BLUE GHOST Visibility forecast

Observer location: undefined°, undefined

Span
Click to sort rows by Start time (UTC) header in descending order
Start Az.
Max El. time (UTC)
Max El. Az.
Max El.
End time (UTC)
End Az.
635 mins2025-02-05 04:04:18.710Z92.746° ESE2025-02-05 09:21:18.710Z179.491° S39.13°2025-02-05 14:39:18.710Z266.28° W
|